TimeEDT,TemperatureF,Dew PointF,Humidity,Sea Level PressureIn,VisibilityMPH,Wind Direction,Wind SpeedMPH,Gust SpeedMPH,PrecipitationIn,Events,Conditions,WindDirDegrees,DateUTC
12:54 AM,57.9,46.0,65,30.15,10.0,Calm,Calm,-,N/A,,Clear,0,2013-09-06 04:54:00
1:54 AM,52.0,46.9,83,30.16,10.0,NNW,4.6,-,N/A,,Clear,330,2013-09-06 05:54:00
2:54 AM,53.1,46.9,80,30.17,10.0,North,6.9,-,N/A,,Clear,350,2013-09-06 06:54:00
3:54 AM,53.1,46.9,80,30.17,10.0,North,9.2,-,N/A,,Clear,350,2013-09-06 07:54:00
4:54 AM,53.1,46.0,77,30.19,10.0,North,8.1,-,N/A,,Clear,350,2013-09-06 08:54:00
5:54 AM,50.0,46.0,86,30.20,10.0,North,4.6,-,N/A,,Clear,350,2013-09-06 09:54:00
6:54 AM,50.0,46.0,86,30.22,10.0,North,6.9,-,N/A,,Clear,350,2013-09-06 10:54:00
7:54 AM,55.0,46.9,74,30.24,10.0,North,6.9,-,N/A,,Clear,360,2013-09-06 11:54:00
8:54 AM,60.1,46.9,62,30.25,10.0,North,9.2,-,N/A,,Clear,10,2013-09-06 12:54:00
9:54 AM,64.9,50.0,58,30.25,10.0,North,8.1,-,N/A,,Clear,10,2013-09-06 13:54:00
10:54 AM,68.0,46.9,47,30.25,10.0,North,6.9,-,N/A,,Clear,350,2013-09-06 14:54:00
11:54 AM,71.1,48.0,44,30.25,10.0,Variable,5.8,-,N/A,,Clear,0,2013-09-06 15:54:00
12:54 PM,72.0,45.0,38,30.23,10.0,North,8.1,-,N/A,,Clear,360,2013-09-06 16:54:00
1:54 PM,73.9,46.0,37,30.22,10.0,Variable,5.8,-,N/A,,Clear,0,2013-09-06 17:54:00
2:54 PM,73.9,46.0,37,30.20,10.0,WNW,9.2,-,N/A,,Scattered Clouds,290,2013-09-06 18:54:00
3:54 PM,68.0,51.1,55,30.19,10.0,East,8.1,-,N/A,,Mostly Cloudy,90,2013-09-06 19:54:00
4:54 PM,66.9,51.1,57,30.18,10.0,ESE,8.1,-,N/A,,Scattered Clouds,110,2013-09-06 20:54:00
5:54 PM,66.9,51.1,57,30.17,10.0,ESE,5.8,-,N/A,,Scattered Clouds,110,2013-09-06 21:54:00
6:54 PM,64.0,52.0,65,30.17,10.0,East,5.8,-,N/A,,Clear,90,2013-09-06 22:54:00
7:54 PM,59.0,52.0,78,30.18,10.0,East,4.6,-,N/A,,Clear,80,2013-09-06 23:54:00
8:54 PM,57.0,51.1,81,30.18,10.0,ENE,3.5,-,N/A,,Clear,70,2013-09-07 00:54:00
9:54 PM,55.9,51.1,84,30.18,10.0,Calm,Calm,-,N/A,,Clear,0,2013-09-07 01:54:00
10:54 PM,54.0,48.9,83,30.17,10.0,Calm,Calm,-,N/A,,Clear,0,2013-09-07 02:54:00
11:54 PM,53.1,50.0,89,30.17,10.0,Calm,Calm,-,N/A,,Clear,0,2013-09-07 03:54:00